Location: Jihlava
(49.4000°N, 15.5830°E)
Time: 19:19:38
(UTC+01:00)

ISS - Visible Passes

Search period start: 30 November 2023 00:00
Search period end: 10 December 2023 00:00
Orbit: 416 x 417 km, 51.6° (Epoch: 30 November)

Date Brightness Start Highest point End Pass type
(mag) Time Alt. Az. Time Alt. Az. Time Alt. Az.
30 Nov -3.8 17:29:43 10° WNW 17:33:05 78° NNE 17:34:46 27° E visible
30 Nov -0.8 19:06:40 10° W 19:07:40 17° W 19:07:40 17° W visible
01 Dec -3.7 16:41:18 10° WNW 16:44:39 65° N 16:47:59 10° E visible
01 Dec -2.9 18:18:07 10° WNW 18:21:20 43° SSW 18:21:29 43° SSW visible
02 Dec -3.4 17:29:37 10° WNW 17:32:56 63° SSW 17:35:23 17° SE visible
02 Dec -0.6 19:07:19 10° WSW 19:08:19 13° WSW 19:08:19 13° WSW visible
03 Dec -3.7 16:41:04 10° WNW 16:44:26 85° SSW 16:47:48 10° ESE visible
03 Dec -1.4 18:18:14 10° W 18:20:51 21° SW 18:22:23 16° S visible
04 Dec -1.9 17:29:24 10° W 17:32:25 31° SW 17:35:25 10° SSE visible
05 Dec -2.6 16:40:39 10° WNW 16:43:54 46° SSW 16:47:06 10° SE visible
06 Dec -0.7 17:29:29 10° W 17:31:30 15° SW 17:33:31 10° S visible
07 Dec -1.0 16:40:16 10° W 16:42:57 23° SW 16:45:39 10° SSE visible
09 Dec 0.2 16:40:59 10° WSW 16:41:37 10° SW 16:42:16 10° SW visible
